Location: Port-Aux-Quilles Astronomical Observatory
(47.9769°N, 69.9642°W)
Time: 02:28:45
(UTC-05:00)

Envisat - Pass Details

Date: 30 October 2019
Orbit: 764 x 766 km, 98.1° (Epoch: 14 November)

Event Time Altitude Azimuth Distance (km) Brightness Sun altitude
Rises 06:02:31 0° 32° (NNE) 3,242 6.6 -13.7°
Reaches altitude 10° 06:06:34 10° 65° (ENE) 2,308 6.4 -13.0°
Maximum altitude 06:08:21 12° 85° (E) 2,186 6.7 -12.7°
Drops below altitude 10° 06:10:07 10° 106° (ESE) 2,301 6.9 -12.4°
Sets 06:14:08 0° 138° (SE) 3,220 7.1 -11.7°
